1305849632993,16.7491
1305849692993,16.6852
1305849752993,16.6638
1305849812993,16.5997
1305849872993,16.6845
1305849932993,16.5945
1305849992993,16.6740
1305850052993,16.6458
1305850112993,16.6441
1305850172993,16.6345
1305850232993,16.6317
1305850292993,16.6262
1305850352993,16.6618
1305850412993,16.6473
1305850472993,16.6932
1305850532993,16.6897
1305850592993,16.6860
1305850652993,16.6716
1305850712993,16.6767
1305850772993,16.6378
1305850832993,16.7011
1305850892993,16.6366
1305850952993,16.6626
1305851012993,16.6830
1305851072993,16.6515
1305851132993,16.6657
1305851192993,16.6798
1305851252993,16.7178
1305851312993,16.7248
1305851372993,16.6503
1305851432993,16.6698
1305851492993,16.6731
1305851552993,16.7094
1305851612993,16.7313
1305851672993,16.7206
1305851732993,16.6930
1305851792993,16.7227
1305851852993,16.6763
1305851912993,16.6815
1305851972993,16.6601
1305852032993,16.7073
1305852092993,16.6896
1305852152993,16.7398
1305852212993,16.6975
1305852272993,16.7026
1305852332993,16.7442
1305852392993,16.7302
1305852452993,16.6998
1305852512993,16.6926
1305852572993,16.7021
1305852632993,16.7198
1305852692993,16.7139
1305852752993,16.6974
1305852812993,16.6715
1305852872993,16.7025
1305852932993,16.7246
1305852992993,16.6586
1305853052993,16.6361
1305853112993,16.6926
1305853172993,16.7063
1305853233004,16.6600
1305853293004,16.6482
1305853353004,16.7086
1305853413004,16.6695
1305853473004,16.6695
1305853533004,16.6876
1305853593004,16.7196
1305853653004,16.6695
1305853713004,16.6819
1305853773004,16.6319
1305853833004,16.6981
1305853893004,16.6937
1305853953004,16.6961
1305854013004,16.7029
1305854073004,16.6947
1305854133004,16.7069
1305854193004,16.6298
1305854253004,16.6755
1305854313004,16.6612
1305854373004,16.6872
1305854433004,16.7173
1305854493004,16.7108
1305854553004,16.7410
1305854613004,16.7133
1305854673004,16.7230
1305854733004,16.7011
1305854793004,16.7450
1305854853004,16.7271
1305854913004,16.7441
1305854973004,16.7041
1305855033004,16.7390
1305855093004,16.7294
1305855153004,16.7295
1305855213004,16.7090
1305855273004,16.6800
1305855333004,16.7147
1305855393004,16.7390
1305855453004,16.7234
1305855513004,16.6991
1305855573004,16.7023
1305855633004,16.6695
1305855693004,16.7169
1305855753004,16.6708
1305855813004,16.6946
1305855873004,16.6872
1305855933004,16.6863
1305855993004,16.7038
1305856053004,16.7084
1305856113004,16.6748
1305856173004,16.6528
1305856233004,16.6416
1305856293004,16.6726
1305856353004,16.6645
1305856413004,16.6032
1305856473004,16.6802
1305856533004,16.6625
1305856593004,16.6936
1305856653004,16.6854
1305856713004,16.6490
1305856773004,16.6810
1305856833014,16.6368
1305856893014,16.6694
1305856953014,16.6754
1305857013014,16.6595
1305857073014,16.6656
1305857133014,16.6484
1305857193014,16.6728
1305857253014,16.6565
1305857313014,16.6215
1305857373014,16.6365
1305857433014,16.6629
1305857493014,16.6642
1305857553014,16.6850
1305857613014,16.6279
1305857673014,16.6425
1305857733014,16.6660
1305857793014,16.6569
1305857853014,16.6508
1305857913014,16.6950
1305857973014,16.7210
1305858033014,16.6717
1305858093014,16.6742
1305858153014,16.6654
1305858213014,16.7056
1305858273014,16.6676
1305858333014,16.6752
1305858393014,16.6777
1305858453014,16.6498
1305858513014,16.6803
1305858573014,16.6479
1305858633014,16.6330
1305858693014,16.6294
1305858753014,16.6395
1305858813014,16.5944
1305858873014,16.6060
1305858933014,16.6013
1305858993014,16.6710
1305859053014,16.5833
1305859113014,16.5707
1305859173014,16.6024
1305859233014,16.6005
1305859293014,16.5808
1305859353014,16.5829
1305859413014,16.6623
1305859473014,16.6447
1305859533014,16.6628
1305859593014,16.6932
1305859653014,16.7014
1305859713014,16.6255
1305859773014,16.6892
1305859833014,16.6145
1305859893014,16.6551
1305859953014,16.6915
1305860013014,16.6138
1305860073014,16.6335
1305860133014,16.6674
1305860193014,16.6312
1305860253014,16.5971
1305860313014,16.6034
1305860373014,16.6571
1305860433025,16.6541
1305860493025,16.6437
1305860553025,16.6367
1305860613025,16.6208
1305860673025,16.6532
1305860733025,16.6013
1305860793025,16.6483
1305860853025,16.6329
1305860913025,16.6663
1305860973025,16.7316
1305861033025,16.6533
1305861093025,16.6642
1305861153025,16.6761
1305861213025,16.6799
1305861273025,16.6802
1305861333025,16.7050
1305861393025,16.7069
1305861453025,16.6860
1305861513025,16.6816
1305861573025,16.6885
1305861633025,16.7022
1305861693025,16.6992
1305861753025,16.6939
1305861813025,16.7010
1305861873025,16.6595
1305861933025,16.6945
1305861993025,16.6559
1305862053025,16.6891
1305862113025,16.6940
1305862173025,16.6925
1305862233025,16.6531
1305862293025,16.6735
1305862353025,16.6410
1305862413025,16.6361
1305862473025,16.6534
1305862533025,16.6210
1305862593025,16.6624
1305862653025,16.6309
1305862713025,16.6474
1305862773025,16.6556
1305862833025,16.6310
1305862893025,16.6574
1305862953025,16.6652
1305863013025,16.6238
1305863073025,16.6273
1305863133025,16.5972
1305863193025,16.6499
1305863253025,16.6664
1305863313025,16.6695
1305863373025,16.6211
1305863433025,16.6060
1305863493025,16.6527
1305863553025,16.6122
1305863613025,16.6394
1305863673025,16.6164
1305863733025,16.6465
1305863793025,16.6103
1305863853025,16.5932
1305863913025,16.5802
1305863973025,16.5897
1305864033035,16.5849
1305864093035,16.5974
1305864153035,16.5922
1305864213035,16.5711
1305864273035,16.6467
1305864333035,16.6102
1305864393035,16.5946
1305864453035,16.6638
1305864513035,16.6733
1305864573035,16.6564
1305864633035,16.6082
1305864693035,16.6427
1305864753035,16.6675
1305864813035,16.6079
1305864873035,16.6640
1305864933034,16.6655
1305864993035,16.6610
1305865053035,16.6377
1305865113035,16.6213
1305865173035,16.5967
1305865233035,16.6351
1305865293035,16.6028
1305865353035,16.6004
1305865413035,16.6155
1305865473035,16.6009
1305865533035,16.5903
1305865593035,16.6235
1305865653035,16.6215
1305865713035,16.6790
1305865773035,16.6825
1305865833035,16.6518
1305865893035,16.6409
1305865953035,16.6611
1305866013035,16.6387
1305866073035,16.6727
1305866133035,16.6400
1305866193035,16.6578
1305866253034,16.6632
1305866313035,16.6011
1305866373035,16.6238
1305866433035,16.6556
1305866493035,16.6355
1305866553035,16.6957
1305866613035,16.6023
1305866673035,16.6434
1305866733035,16.6374
1305866793035,16.6514
1305866853035,16.6487
1305866913035,16.6039
1305866973035,16.6615
1305867033035,16.6581
1305867093035,16.6910
1305867153035,16.6574
1305867213035,16.6458
1305867273035,16.6605
1305867333035,16.6766
1305867393035,16.6681
1305867453035,16.6216
1305867513035,16.6250
1305867573035,16.6184
1305867633044,16.5751
1305867693044,16.5698
1305867753044,16.6133
1305867813044,16.6249
1305867873044,16.6294
1305867933044,16.5966
1305867993044,16.6215
1305868053044,16.6590
1305868113044,16.6366
1305868173044,16.6081
1305868233044,16.6693
1305868293044,16.6299
1305868353044,16.6399
1305868413044,16.6469
1305868473044,16.6020
1305868533044,16.6115
1305868593044,16.6061
1305868653044,16.6374
1305868713044,16.6550
1305868773044,16.5905
1305868833044,16.6388
1305868893044,16.6184
1305868953044,16.6362
1305869013044,16.6059
1305869073044,16.6043
1305869133044,16.6073
1305869193044,16.6150
1305869253044,16.6076
1305869313044,16.6381
1305869373044,16.5625
1305869433044,16.6156
1305869493044,16.5954
1305869553044,16.5980
1305869613044,16.5727
1305869673044,16.6245
1305869733044,16.5215
1305869793044,16.5797
1305869853044,16.6031
1305869913044,16.5928
1305869973044,16.5081
1305870033044,16.5357
1305870093044,16.5090
1305870153044,16.5698
1305870213044,16.5900
1305870273044,16.5526
1305870333044,16.5713
1305870393044,16.5921
1305870453044,16.6250
1305870513044,16.6010
1305870573044,16.5834
1305870633044,16.5512
1305870693044,16.5939
1305870753044,16.5548
1305870813044,16.5768
1305870873044,16.5565
1305870933044,16.6258
1305870993044,16.6078
1305871053044,16.5804
1305871113044,16.6008
1305871173044,16.5708
1305871233054,16.5837
1305871293054,16.5891
1305871353054,16.5554
1305871413054,16.5930
1305871473054,16.5469
1305871533054,16.5442
1305871593054,16.5433
1305871653054,16.5764
1305871713054,16.5222
1305871773054,16.5887
1305871833054,16.6339
1305871893054,16.5869
1305871953054,16.6142
1305872013054,16.6126
1305872073054,16.6182
1305872133054,16.5372
1305872193054,16.5697
1305872253054,16.5354
1305872313054,16.5978
1305872373054,16.5772
1305872433054,16.6214
1305872493054,16.5780
1305872553054,16.5878
1305872613054,16.6073
1305872673054,16.5815
1305872733054,16.5576
1305872793054,16.6092
1305872853054,16.6160
1305872913054,16.6107
1305872973054,16.5464
1305873033054,16.5827
1305873093054,16.5852
1305873153054,16.5617
1305873213054,16.5492
1305873273054,16.5813
1305873333054,16.5876
1305873393054,16.5935
1305873453054,16.5699
1305873513054,16.5745
1305873573054,16.5963
1305873633054,16.5753
1305873693054,16.5870
1305873753054,16.5485
1305873813054,16.6047
1305873873054,16.5700
1305873933054,16.5807
1305873993054,16.6351
1305874053054,16.5845
1305874113054,16.6111
1305874173054,16.5705
1305874233054,16.5678
1305874293054,16.5771
1305874353054,16.5374
1305874413054,16.5146
1305874473054,16.5702
1305874533054,16.5942
1305874593054,16.5613
1305874653054,16.6018
1305874713054,16.6151
1305874773054,16.5173
1305874833064,16.5569
1305874893064,16.5978
1305874953064,16.5763
1305875013064,16.6248
1305875073064,16.6010
1305875133064,16.5575
1305875193064,16.5842
1305875253064,16.5884
1305875313064,16.6032
1305875373064,16.6037
1305875433064,16.5217
1305875493064,16.6053
1305875553064,16.6086
1305875613064,16.5522
1305875673064,16.6158
1305875733064,16.6061
1305875793064,16.5909
1305875853064,16.5856
1305875913064,16.5551
1305875973064,16.5922
1305876033064,16.5443
1305876093064,16.6661
1305876153064,16.5903
1305876213064,16.5772
1305876273064,16.5891
1305876333064,16.6048
1305876393064,16.5483
1305876453064,16.5824
1305876513064,16.5551
1305876573064,16.5466
1305876633064,16.5482
1305876693064,16.5684
1305876753064,16.5309
1305876813064,16.5399
1305876873064,16.5567
1305876933064,16.5903
1305876993064,16.5280
1305877053064,16.5332
1305877113064,16.5924
1305877173064,16.6048
1305877233064,16.5610
1305877293064,16.5438
1305877353064,16.5307
1305877413064,16.5566
1305877473064,16.5493
1305877533064,16.5231
1305877593064,16.5138
1305877653064,16.5205
1305877713064,16.5714
1305877773064,16.5634
1305877833064,16.5872
1305877893064,16.6175
1305877953064,16.5688
1305878013064,16.5437
1305878073064,16.5844
1305878133064,16.5617
1305878193064,16.5865
1305878253064,16.5917
1305878313064,16.5549
1305878373064,16.6324
1305878433074,16.5854
1305878493074,16.6433
1305878553074,16.6089
1305878613074,16.5705
1305878673074,16.5828
1305878733074,16.6206
1305878793074,16.5803
1305878853074,16.6143
1305878913074,16.5684
1305878973074,16.5697
1305879033074,16.5479
1305879093074,16.5885
1305879153074,16.5705
1305879213074,16.5430
1305879273074,16.5524
1305879333074,16.5635
1305879393074,16.6082
1305879453074,16.5666
1305879513074,16.5492
1305879573074,16.4834
1305879633074,16.5437
1305879693074,16.5654
1305879753074,16.5484
1305879813074,16.5657
1305879873074,16.5261
1305879933074,16.5828
1305879993074,16.5670
1305880053074,16.5881
1305880113074,16.5496
1305880173074,16.5704
1305880233074,16.5765
1305880293074,16.5728
1305880353074,16.6041
1305880413074,16.5669
1305880473074,16.5854
1305880533074,16.5801
1305880593074,16.6248
1305880653074,16.6022
1305880713074,16.5648
1305880773074,16.5731
1305880833074,16.5819
1305880893074,16.5899
1305880953074,16.5448
1305881013074,16.5565
1305881073074,16.5294
1305881133074,16.5597
1305881193074,16.5266
1305881253074,16.5307
1305881313074,16.5045
1305881373074,16.5104
1305881433074,16.4811
1305881493074,16.5289
1305881553074,16.5093
1305881613074,16.5132
1305881673074,16.5600
1305881733074,16.5194
1305881793074,16.5384
1305881853074,16.5445
1305881913074,16.5395
1305881973074,16.5803
1305882033084,16.5521
1305882093084,16.5763
1305882153084,16.5473
1305882213084,16.6215
1305882273084,16.5824
1305882333084,16.5773
1305882393084,16.5695
1305882453084,16.5768
1305882513084,16.5735
1305882573084,16.5831
1305882633084,16.5656
1305882693084,16.5750
1305882753084,16.5572
1305882813084,16.5120
1305882873084,16.5626
1305882933084,16.5724
1305882993084,16.5432
1305883053084,16.5551
1305883113084,16.6216
1305883173084,16.5195
1305883233084,16.5345
1305883293084,16.4929
1305883353084,16.5697
1305883413084,16.5198
1305883473084,16.5641
1305883533084,16.5556
1305883593084,16.5402
1305883653084,16.5800
1305883713084,16.5844
1305883773084,16.5189
1305883833084,16.5811
1305883893084,16.5894
1305883953084,16.5807
1305884013084,16.5492
1305884073084,16.5223
1305884133084,16.6023
1305884193084,16.6259
1305884253084,16.5920
1305884313084,16.5331
1305884373084,16.5617
1305884433084,16.5873
1305884493084,16.5754
1305884553084,16.5487
1305884613084,16.6280
1305884673084,16.5957
1305884733084,16.6025
1305884793084,16.5928
1305884853084,16.5921
1305884913084,16.6134
1305884973084,16.6172
1305885033084,16.6058
1305885093084,16.6119
1305885153084,16.5955
1305885213084,16.5545
1305885273084,16.5526
1305885333084,16.6362
1305885393084,16.6253
1305885453084,16.6181
1305885513084,16.6099
1305885573084,16.6183
1305885633093,16.6041
1305885693093,16.5734
1305885753093,16.6447
1305885813093,16.5876
1305885873093,16.5306
1305885933093,16.5319
1305885993093,16.5655
1305886053093,16.5797
1305886113093,16.5899
1305886173093,16.5567
1305886233093,16.5745
1305886293093,16.5734
1305886353093,16.5549
1305886413093,16.5432
1305886473093,16.5375
1305886533093,16.5472
1305886593093,16.5322
1305886653093,16.5052
1305886713093,16.5694
1305886773093,16.5731
1305886833093,16.5464
1305886893093,16.5316
1305886953093,16.5157
1305887013093,16.5855
1305887073093,16.5936
1305887133093,16.5662
1305887193093,16.5395
1305887253093,16.5885
1305887313093,16.5904
1305887373093,16.6167
1305887433093,16.5884
1305887493093,16.5875
1305887553093,16.5714
1305887613093,16.5721
1305887673093,16.6028
1305887733093,16.5923
1305887793093,16.6118
1305887853093,16.5693
1305887913093,16.5451
1305887973093,16.5987
1305888033093,16.5520
1305888093093,16.5597
1305888153093,16.5556
1305888213093,16.6143
1305888273093,16.5742
1305888333093,16.5367
1305888393093,16.5609
1305888453093,16.5556
1305888513093,16.6083
1305888573093,16.6093
1305888633093,16.5359
1305888693093,16.5686
1305888753093,16.5229
1305888813093,16.5763
1305888873093,16.5537
1305888933093,16.5704
1305888993093,16.5938
1305889053093,16.6072
1305889113093,16.6130
1305889173093,16.5776
1305889233103,16.6352
1305889293103,16.6120
1305889353103,16.6066
1305889413103,16.5711
1305889473103,16.5403
1305889533103,16.5622
1305889593103,16.5614
1305889653103,16.5444
1305889713103,16.5468
1305889773103,16.5414
1305889833103,16.4992
1305889893103,16.1108
1305890433103,16.4707
1305890493103,16.4961
1305890553103,16.5468
1305890613103,16.5264
1305890673103,16.5233
1305890733103,16.5534
1305890793103,16.5231
1305890853103,16.5161
1305890913103,16.5471
1305890973103,16.5176
1305891033103,16.5243
1305891093103,16.5449
1305891153103,16.5490
1305891213103,16.5220
1305891273103,16.4904
1305891333103,16.5396
1305891393103,16.5237
1305891453103,16.4799
1305891513103,16.4858
1305891573103,16.5522
1305891633103,16.5366
1305891693103,16.5556
1305891753103,16.5474
1305891813103,16.5515
1305891873103,16.5537
1305891933103,16.5478
1305891993103,16.5850
1305892053103,16.5694
1305892113103,16.4972
1305892173103,16.5300
1305892233103,16.5493
1305892293103,16.5449
1305892353103,16.5341
1305892413103,16.5438
1305892473103,16.5790
1305892533103,16.5534
1305892593103,16.5793
1305892653103,16.5241
1305892713103,16.5354
1305892773103,16.5803
1305892833113,16.5891
1305892893113,16.5614
1305892953113,16.5211
1305893013113,16.5649
1305893073113,16.5709
1305893133113,16.5473
1305893193113,16.5870
1305893253113,16.5929
1305893313113,16.5394
1305893373113,16.5605
1305893433113,16.5932
1305893493113,16.5801
1305893553113,16.6536
1305893613113,16.5958
1305893673113,16.6397
1305893733113,16.5865
1305893793113,16.5963
1305893853113,16.6043
1305893913113,16.5565
1305893973113,16.5912
1305894033113,16.5781
1305894093113,16.5730
1305894153113,16.5633
1305894213113,16.5659
1305894273113,16.5718
1305894333113,16.5632
1305894393113,16.5417
1305894453113,16.5591
1305894513113,16.5793
1305894573113,16.5706
1305894633113,16.5776
1305894693113,16.5434
1305894753113,16.6033
1305894813113,16.5648
1305894873113,16.5859
1305894933113,16.5243
1305894993113,16.5563
1305895053113,16.5738
1305895113113,16.5827
1305895173113,16.5242
1305895233113,16.5708
1305895293113,16.5447
1305895353113,16.6056
1305895413113,16.6127
1305895473113,16.5867
1305895533113,16.6255
1305895593113,16.5763
1305895653113,16.6043
1305895713113,16.5915
1305895773113,16.5988
1305895833113,16.6162
1305895893113,16.6170
1305895953113,16.6195
1305896013113,16.6011
1305896073113,16.6264
1305896133113,16.5761
1305896193113,16.6331
1305896253113,16.6034
1305896313113,16.6051
1305896373113,16.5891
1305896433123,16.6321
1305896493123,16.6126
1305896553123,16.5719
1305896613123,16.6000
1305896673123,16.5723
1305896733123,16.6065
1305896793123,16.5730
1305896853123,16.6419
1305896913123,16.6216
1305896973123,16.6375
1305897033123,16.6717
1305897093123,16.6618
1305897153123,16.6325
1305897213123,16.6400
1305897273123,16.6368
1305897333123,16.6146
1305897393123,16.6649
1305897453123,16.5959
1305897513123,16.6433
1305897573123,16.6495
1305897633123,16.6420
1305897693123,16.5801
1305897753123,16.6268
1305897813123,16.6064
1305897873123,16.5918
1305897933123,16.5965
1305897993123,16.6017
1305898053123,16.6270
1305898113123,16.5800
1305898173123,16.6252
1305898233123,16.6104
1305898293123,16.6057
1305898353123,16.6405
1305898413123,16.6385
1305898473123,16.6425
1305898533123,16.6471
1305898593123,16.5949
1305898653123,16.6453
1305898713123,16.6628
1305898773123,16.6143
1305898833123,16.6494
1305898893123,16.5947
1305898953123,16.6657
1305899013123,16.5861
1305899073123,16.6451
1305899133123,16.5957
1305899193123,16.5942
1305899253123,16.6353
1305899313123,16.6279
1305899373123,16.5949
1305899433123,16.6173
1305899493123,16.5877
1305899553123,16.6537
1305899613123,16.6288
1305899673123,16.6046
1305899733123,16.6313
1305899793123,16.6519
1305899853123,16.5739
1305899913123,16.5879
1305899973123,16.5903
1305900033132,16.6401
1305900093132,16.5793
1305900153132,16.5893
1305900213132,16.6248
1305900273132,16.5761
1305900333132,16.6166
1305900393132,16.6121
1305900453132,16.6384
1305900513132,16.6609
1305900573132,16.5920
1305900633132,16.6157
1305900693132,16.6321
1305900753132,16.6432
1305900813132,16.6574
1305900873132,16.5906
1305900933132,16.6683
1305900993132,16.6107
1305901053132,16.6077
1305901113132,16.6150
1305901173132,16.6193
1305901233132,16.6075
1305901293132,16.6237
1305901353132,16.6245
1305901413132,16.6567
1305901473132,16.6570
1305901533132,16.6154
1305901593132,16.6150
1305901653132,16.6055
1305901713132,16.5786
1305901773132,16.5805
1305901833132,16.5853
1305901893132,16.6141
1305901953132,16.5876
1305902013132,16.6112
1305902073132,16.5639
1305902133132,16.6128
1305902193132,16.6082
1305902253132,16.6181
1305902313132,16.6159
1305902373132,16.6235
1305902433132,16.5634
1305902493132,16.6441
1305902553132,16.7026
1305902613132,16.6416
1305902673132,16.6464
1305902733132,16.6354
1305902793132,16.6332
1305902853132,16.6119
1305902913132,16.6276
1305902973132,16.6461
1305903033132,16.6294
1305903093132,16.6339
1305903153132,16.6263
1305903213132,16.6257
1305903273132,16.6108
1305903333132,16.6448
1305903393132,16.6161
1305903453132,16.6835
1305903513132,16.6666
1305903573132,16.6760
1305903633142,16.6428
1305903693142,16.6436
1305903753142,16.5925
1305903813142,16.6995
1305903873142,16.5601
1305903933142,16.6134
1305903993142,16.6063
1305904053142,16.6282
1305904113142,16.6108
1305904173142,16.5824
1305904233142,16.6177
1305904293142,16.6463
1305904353142,16.6440
1305904413142,16.6561
1305904473142,16.6494
1305904533142,16.6822
1305904593142,16.6164
1305904653142,16.6323
1305904713142,16.6517
1305904773142,16.6931
1305904833142,16.6255
1305904893142,16.6339
1305904953142,16.6525
1305905013142,16.6166
1305905073142,16.6138
1305905133142,16.5662
1305905193142,16.6238
1305905253142,16.6264
1305905313142,16.6146
1305905373142,16.6247
1305905433142,16.6328
1305905493142,16.6157
1305905553142,16.5860
1305905613142,16.6114
1305905673142,16.6308
1305905733142,16.5818
1305905793142,16.6399
1305905853142,16.6173
1305905913142,16.6481
1305905973142,16.6203
1305906033142,16.6127
1305906093142,16.5759
1305906153142,16.6081
1305906213142,16.5877
1305906273142,16.6074
1305906333142,16.5377
1305906393142,16.5887
1305906453142,16.5334
1305906513142,16.5951
1305906573142,16.6056
1305906633142,16.6204
1305906693142,16.5752
1305906753142,16.6342
1305906813142,16.6032
1305906873142,16.6227
1305906933142,16.6057
1305906993142,16.6577
1305907053142,16.6535
1305907113142,16.6298
1305907173142,16.6779
1305907233151,16.6555
1305907293151,16.6350
1305907353151,16.6518
1305907413151,16.6239
1305907473151,16.6644
1305907533151,16.6505
1305907593151,16.6700
1305907653151,16.6319
1305907713151,16.6666
1305907773151,16.6791
1305907833151,16.6574
1305907893151,16.7161
1305907953151,16.6397
1305908013151,16.6281
1305908073151,16.6787
1305908133151,16.6783
1305908193151,16.6346
1305908253151,16.6475
1305908313151,16.6551
1305908373151,16.6885
1305908433151,16.6952
1305908493151,16.6448
1305908553151,16.6498
1305908613151,16.6256
1305908673151,16.5886
1305908733151,16.6135
1305908793151,16.5929
1305908853151,16.6291
1305908913151,16.6276
1305908973151,16.6080
1305909033151,16.6369
1305909093151,16.6241
1305909153151,16.6819
1305909213151,16.6142
1305909273151,16.6357
1305909333151,16.6478
1305909393151,16.6006
1305909453151,16.6312
1305909513151,16.6027
1305909573151,16.6415
1305909633151,16.6272
1305909693151,16.6434
1305909753151,16.6014
1305909813151,16.6163
1305909873151,16.6307
1305909933151,16.6219
1305909993151,16.6512
1305910053151,16.6512
1305910113151,16.6177
1305910173151,16.6265
1305910233151,16.6197
1305910293151,16.6470
1305910353151,16.6278
1305910413151,16.6390
1305910473151,16.6816
1305910533151,16.6193
1305910593151,16.6478
1305910653151,16.5956
1305910713151,16.6158
1305910773151,16.6461
1305910833161,16.6147
1305910893161,16.6291
1305910953161,16.6289
1305911013161,16.6292
1305911073161,16.6245
1305911133161,16.6224
1305911193161,16.6058
1305911253161,16.5999
1305911313161,16.5750
1305911373161,16.6069
1305911433161,16.6245
1305911493161,16.6108
1305911553161,16.5865
1305911613161,16.5703
1305911673161,16.5330
1305911733161,16.6223
1305911793161,16.5717
1305911853161,16.6287
1305911913161,16.5802
1305911973161,16.5974
1305912033161,16.5721
1305912093161,16.6257
1305912153161,16.6253
1305912213161,16.5792
1305912273161,16.5717
1305912333161,16.5345
1305912393161,16.5792
1305912453161,16.6036
1305912513161,16.5798
1305912573161,16.5829
1305912633161,16.5832
1305912693161,16.5777
1305912753161,16.5897
1305912813161,16.5889
1305912873161,16.5466
1305912933161,16.5922
1305912993161,16.5512
1305913053161,16.5779
1305913113161,16.6148
1305913173161,16.6286
1305913233161,16.6536
1305913293161,16.6122
1305913353161,16.5628
1305913413161,16.5400
1305913473161,16.5925
1305913533161,16.6049
1305913593161,16.6430
1305913653161,16.6021
1305913713161,16.6092
1305913773161,16.6084
1305913833161,16.6289
1305913893161,16.6430
1305913953161,16.6156
1305914013161,16.6406
1305914073161,16.6511
1305914133161,16.6672
1305914193161,16.6451
1305914253161,16.6511
1305914313161,16.5635
1305914373161,16.6382
1305914433171,16.6016
1305914493171,16.6158
1305914553171,16.6039
1305914613171,16.6138
1305914673171,16.5821
1305914733171,16.5679
1305914793171,16.6044
1305914853171,16.5871
1305914913171,16.5929
1305914973171,16.5859
1305915033171,16.5475
1305915093171,16.6104
1305915153171,16.6280
1305915213171,16.6330
1305915273171,16.6288
1305915333171,16.6385
1305915393171,16.6392
1305915453171,16.5693